Bookmark and Share
Track history (hours):
 

Florencia

Last reported at 2014-Apr-20 05:23 UTC. Time now 2014-Apr-20 23:43 UTC.
Position N 42°39' E 009°48'.

Length 186 m.

Type: Ship. MMSI: 247105900.

NotesDate/timePositionNaut miles runAvg speedWind from/ knotsBaromVisibWave heightAir tempDewpointWater temp
2014-Apr-20 05:23N 42°39' E 009°48'2222.1
2014-Apr-20 04:23N 42°59' E 009°37'1822.0
2014-Apr-20 03:33N 43°17' E 009°29'2222.3
2014-Apr-20 02:33N 43°38' E 009°18'2222.2
2014-Apr-20 01:33N 43°58' E 009°07'2121.2
2014-Apr-20 00:33N 44°18' E 008°58'7 6.0
2014-Apr-19 23:28N 44°25' E 008°55'0 0.0
2014-Apr-19 22:28N 44°25' E 008°55'0 0.0
2014-Apr-19 21:28N 44°25' E 008°55'0 0.0
2014-Apr-19 20:28N 44°25' E 008°55'2 1.9
2014-Apr-19 19:33N 44°23' E 008°57'2120.8
2014-Apr-19 18:33N 44°04' E 009°07'2322.5
2014-Apr-19 17:33N 43°43' E 009°18'2322.9
2014-Apr-19 16:33N 43°21' E 009°27'5023.0
2014-Apr-19 14:23N 42°33' E 009°48'3 0.1
2014-Apr-18 06:15N 42°36' E 009°49'2021.6
2014-Apr-18 05:19N 42°55' E 009°40'1621.5
2014-Apr-18 04:33N 43°10' E 009°33'2222.0
2014-Apr-18 03:33N 43°31' E 009°21'2221.8
2014-Apr-18 02:33N 43°52' E 009°13'2221.6
2014-Apr-18 01:33N 44°12' E 009°02'1413.0
2014-Apr-18 00:30N 44°25' E 008°55'0 0.0
2014-Apr-17 23:33N 44°25' E 008°55'0 0.0
2014-Apr-17 22:33N 44°25' E 008°55'0 0.0
2014-Apr-17 21:33N 44°25' E 008°55'0 0.0
2014-Apr-17 20:33N 44°25' E 008°55'0 0.0
2014-Apr-17 19:33N 44°25' E 008°55'5 4.9
2014-Apr-17 18:33N 44°20' E 008°58'2222.3
2014-Apr-17 17:33N 43°59' E 009°09'2222.1
2014-Apr-17 16:33N 43°39' E 009°19'2222.0
2014-Apr-17 15:33N 43°18' E 009°29'12 0.3
2014-Apr-16 02:16N 43°06' E 009°33'1622.1
2014-Apr-16 01:33N 43°20' E 009°26'2222.1
2014-Apr-16 00:33N 43°41' E 009°16'2222.0
2014-Apr-15 23:33N 44°02' E 009°06'2222.2
2014-Apr-15 22:33N 44°23' E 008°57'2 1.9
2014-Apr-15 21:32N 44°25' E 008°55'0 0.0
2014-Apr-15 20:32N 44°25' E 008°55'0 0.0
2014-Apr-15 19:26N 44°25' E 008°55'0 0.0
2014-Apr-15 18:26N 44°25' E 008°55'0 0.0
2014-Apr-15 17:32N 44°25' E 008°55'8 7.9
2014-Apr-15 16:33N 44°18' E 008°60'2322.7
2014-Apr-15 15:34N 43°56' E 009°10'2322.8
2014-Apr-15 14:33N 43°35' E 009°21'2311.5
2014-Apr-15 12:34N 43°13' E 009°32'  
2014-Apr-13 04:09N 42°58' E 009°37'1322.1
2014-Apr-13 03:33N 43°10' E 009°31'2222.2
2014-Apr-13 02:33N 43°32' E 009°22'2222.2
2014-Apr-13 01:33N 43°52' E 009°11'2222.2
2014-Apr-13 00:33N 44°13' E 009°01'1211.1
2014-Apr-12 23:28N 44°25' E 008°55'0 0.0
2014-Apr-12 22:31N 44°25' E 008°55'0 0.0
2014-Apr-12 21:31N 44°25' E 008°55'0 0.0
2014-Apr-12 20:31N 44°25' E 008°55'0 0.0
2014-Apr-12 19:33N 44°25' E 008°55'1514.7
2014-Apr-12 18:34N 44°11' E 009°03'2323.1
2014-Apr-12 17:34N 43°49' E 009°13'2322.9
2014-Apr-12 16:34N 43°27' E 009°24'2323.3
2014-Apr-12 15:33N 43°05' E 009°35'3023.3
2014-Apr-12 14:17N 42°37' E 009°48'27 0.8
2014-Apr-11 04:15N 43°03' E 009°36'1521.9
2014-Apr-11 03:33N 43°17' E 009°30'2222.1
2014-Apr-11 02:33N 43°38' E 009°19'2221.9
2014-Apr-11 01:34N 43°58' E 009°08'2221.7
2014-Apr-11 00:33N 44°19' E 008°58'6 6.1
2014-Apr-10 23:33N 44°25' E 008°55'0 0.0
2014-Apr-10 22:33N 44°25' E 008°55'0 0.0
2014-Apr-10 21:33N 44°25' E 008°55'0 0.0
2014-Apr-10 20:33N 44°25' E 008°55'0 0.1
2014-Apr-10 19:33N 44°25' E 008°55'1414.5
2014-Apr-10 18:34N 44°11' E 009°03'2322.5
2014-Apr-10 17:33N 43°50' E 009°13'2222.1
2014-Apr-10 16:34N 43°29' E 009°24'2422.1
2014-Apr-10 15:28N 43°07' E 009°35'2222.6
2014-Apr-10 14:29N 42°46' E 009°45'2122.5
2014-Apr-10 13:34N 42°26' E 009°54'  

Dump ship's entire track history

sailing weather and tide predictions

Florencia — IBPD — position and weather